When you browse on this site, cookies collect data to enhance your experience and personalize the content and advertising you see.
Visit our Privacy Policy to learn more. By continuing to use the site, you agree to this use of cookies and data.
  • în România
  • Lista ţărilor
  • Pe 7 zile
  • Temperatura apei
  • Hartă satelitară
  • Meteo pe hartă
  • Widget-uri
  • user-avatar
    Intrare

    Meteo pe oră la Kulikovka

    Astăzi, 17 Noiembrie, Sâmbătă

    Timp Temperatura Precipitaţii Vânt Presiune Umiditate
    00:00 -1°C° 0 mm 1 m/s 769 mmHg 23%
    01:00 -1°C° 0 mm 1 m/s 768 mmHg 22%
    02:00 -2°C° 0 mm 1 m/s 768 mmHg 22%
    03:00 -2°C° 0 mm 1 m/s 768 mmHg 21%
    04:00 -2°C° 0 mm 1 m/s 768 mmHg 22%
    05:00 -2°C° 0 mm 1 m/s 767 mmHg 22%
    06:00 -2°C° 0 mm 1 m/s 767 mmHg 22%
    07:00 -2°C° 0 mm 1 m/s 766 mmHg 22%
    08:00 -2°C° 0 mm 1 m/s 766 mmHg 22%
    09:00 -3°C° 0 mm 2 m/s 766 mmHg 22%
    10:00 -2°C° 0 mm 2 m/s 766 mmHg 21%
    11:00 -1°C° 0 mm 2 m/s 766 mmHg 20%
    12:00 0°C° 0 mm 3 m/s 765 mmHg 20%
    13:00 0°C° 0 mm 3 m/s 764 mmHg 21%
    14:00 0°C° 0 mm 3 m/s 764 mmHg 23%
    15:00 0°C° 0 mm 3 m/s 763 mmHg 24%
    16:00 -1°C° 0 mm 3 m/s 762 mmHg 26%
    17:00 -2°C° 0 mm 4 m/s 762 mmHg 27%
    18:00 -3°C° 0 mm 4 m/s 761 mmHg 29%
    19:00 -3°C° 0 mm 4 m/s 760 mmHg 30%
    20:00 -3°C° 0 mm 4 m/s 760 mmHg 31%
    21:00 -3°C° 0 mm 4 m/s 759 mmHg 33%
    22:00 -2°C° 0 mm 5 m/s 758 mmHg 34%
    23:00 -2°C° 0 mm 5 m/s 758 mmHg 35%

    Mâine, 18 Noiembrie, Duminică

    Timp Temperatura Precipitaţii Vânt Presiune Umiditate
    00:00 -2°C° 0 mm 5 m/s 757 mmHg 36%
    01:00 -2°C° 0 mm 5 m/s 756 mmHg 40%
    02:00 -2°C° 0 mm 5 m/s 756 mmHg 43%
    03:00 -4°C° 0 mm 5 m/s 755 mmHg 46%
    04:00 -4°C° 0 mm 5 m/s 755 mmHg 47%
    05:00 -3°C° 0 mm 4 m/s 754 mmHg 49%
    06:00 -3°C° 0 mm 4 m/s 753 mmHg 50%
    07:00 -3°C° 0 mm 4 m/s 753 mmHg 52%
    08:00 -3°C° 0 mm 4 m/s 753 mmHg 55%
    09:00 -3°C° 0 mm 4 m/s 753 mmHg 58%
    10:00 -2°C° 0 mm 4 m/s 753 mmHg 62%
    11:00 -1°C° 0 mm 3 m/s 753 mmHg 65%
    12:00 -1°C° 0 mm 3 m/s 753 mmHg 69%
    13:00 -1°C° 0 mm 3 m/s 753 mmHg 72%
    14:00 -1°C° 0 mm 3 m/s 753 mmHg 74%
    15:00 -1°C° 0 mm 3 m/s 753 mmHg 76%
    16:00 -1°C° 0 mm 2 m/s 753 mmHg 79%
    17:00 -1°C° 0 mm 2 m/s 753 mmHg 81%
    18:00 -2°C° 0 mm 2 m/s 753 mmHg 84%
    19:00 -2°C° 0 mm 2 m/s 753 mmHg 85%
    20:00 0°C° 0 mm 1 m/s 753 mmHg 87%
    21:00 0°C° 0 mm 1 m/s 754 mmHg 88%
    22:00 0°C° 0 mm 1 m/s 754 mmHg 89%
    23:00 0°C° 0 mm 1 m/s 754 mmHg 89%

    Poimâine, 19 Noiembrie, Luni

    Timp Temperatura Precipitaţii Vânt Presiune Umiditate
    00:00 +1°C° 0 mm 1 m/s 754 mmHg 90%
    01:00 +1°C° 0.1 mm 1 m/s 755 mmHg 90%
    02:00 +1°C° 0.1 mm 1 m/s 755 mmHg 90%
    03:00 0°C° 0.1 mm 0 m/s 755 mmHg 91%
    04:00 0°C° 0 mm 0 m/s 755 mmHg 91%
    05:00 -1°C° 0 mm 0 m/s 756 mmHg 92%
    06:00 -1°C° 0 mm 0 m/s 756 mmHg 93%
    07:00 -1°C° 0 mm 0 m/s 756 mmHg 93%
    08:00 0°C° 0 mm 1 m/s 756 mmHg 93%
    09:00 0°C° 0 mm 1 m/s 757 mmHg 93%
    10:00 +1°C° 0 mm 1 m/s 757 mmHg 90%
    11:00 +2°C° 0 mm 1 m/s 758 mmHg 87%
    12:00 +2°C° 0 mm 1 m/s 758 mmHg 85%
    13:00 +2°C° 0 mm 1 m/s 758 mmHg 86%
    14:00 +2°C° 0 mm 1 m/s 758 mmHg 87%
    15:00 +2°C° 0 mm 1 m/s 759 mmHg 88%
    16:00 -1°C° 0 mm 2 m/s 759 mmHg 90%
    17:00 -1°C° 0 mm 2 m/s 759 mmHg 92%
    18:00 -2°C° 0 mm 2 m/s 759 mmHg 94%
    19:00 -2°C° 0 mm 2 m/s 759 mmHg 95%
    20:00 -2°C° 0 mm 2 m/s 759 mmHg 95%
    21:00 -2°C° 0 mm 2 m/s 759 mmHg 95%
    22:00 -2°C° 0 mm 2 m/s 759 mmHg 95%
    23:00 -2°C° 0 mm 2 m/s 759 mmHg 95%

    20 Noiembrie, Marţi

    Timp Temperatura Precipitaţii Vânt Presiune Umiditate
    00:00 -2°C° 0 mm 2 m/s 759 mmHg 95%
    01:00 -2°C° 0 mm 2 m/s 759 mmHg 95%
    02:00 -2°C° 0 mm 2 m/s 759 mmHg 95%
    03:00 -2°C° 0 mm 2 m/s 759 mmHg 95%
    04:00 -2°C° 0 mm 2 m/s 759 mmHg 95%
    05:00 -2°C° 0 mm 2 m/s 759 mmHg 95%
    06:00 -2°C° 0 mm 2 m/s 758 mmHg 96%
    07:00 -2°C° 0 mm 3 m/s 759 mmHg 95%
    08:00 -2°C° 0 mm 3 m/s 759 mmHg 94%
    09:00 -2°C° 0 mm 3 m/s 759 mmHg 94%
    10:00 -1°C° 0 mm 3 m/s 758 mmHg 91%
    11:00 -1°C° 0 mm 3 m/s 758 mmHg 88%
    12:00 -1°C° 0 mm 3 m/s 758 mmHg 85%
    13:00 -1°C° 0 mm 3 m/s 758 mmHg 84%
    14:00 -1°C° 0 mm 3 m/s 757 mmHg 83%
    15:00 -1°C° 0 mm 2 m/s 757 mmHg 82%
    16:00 -1°C° 0 mm 2 m/s 757 mmHg 83%
    17:00 -1°C° 0 mm 2 m/s 757 mmHg 84%
    18:00 -1°C° 0 mm 2 m/s 757 mmHg 84%
    19:00 -1°C° 0 mm 2 m/s 757 mmHg 85%
    20:00 0°C° 0 mm 1 m/s 757 mmHg 85%
    21:00 0°C° 0 mm 1 m/s 756 mmHg 85%
    22:00 0°C° 0 mm 1 m/s 756 mmHg 84%
    23:00 0°C° 0 mm 1 m/s 756 mmHg 84%

    21 Noiembrie, Miercuri

    Timp Temperatura Precipitaţii Vânt Presiune Umiditate
    00:00 0°C° 0 mm 1 m/s 756 mmHg 84%
    01:00 0°C° 0 mm 1 m/s 756 mmHg 83%
    02:00 0°C° 0 mm 1 m/s 756 mmHg 83%
    03:00 0°C° 0 mm 1 m/s 755 mmHg 83%
    04:00 -2°C° 0 mm 2 m/s 755 mmHg 83%
    05:00 -2°C° 0 mm 2 m/s 755 mmHg 83%
    06:00 -2°C° 0 mm 2 m/s 755 mmHg 84%
    07:00 -2°C° 0 mm 2 m/s 755 mmHg 83%
    08:00 -2°C° 0 mm 3 m/s 755 mmHg 82%
    09:00 -2°C° 0 mm 3 m/s 755 mmHg 81%
    10:00 -1°C° 0 mm 3 m/s 754 mmHg 78%
    11:00 -1°C° 0 mm 3 m/s 754 mmHg 75%
    12:00 -2°C° 0 mm 4 m/s 754 mmHg 73%
    13:00 -2°C° 0 mm 4 m/s 754 mmHg 73%
    14:00 -2°C° 0 mm 4 m/s 754 mmHg 73%
    15:00 -2°C° 0 mm 4 m/s 754 mmHg 73%
    16:00 -3°C° 0 mm 4 m/s 754 mmHg 75%
    17:00 -3°C° 0 mm 4 m/s 754 mmHg 77%
    18:00 -4°C° 0 mm 4 m/s 753 mmHg 79%
    19:00 -4°C° 0 mm 4 m/s 753 mmHg 79%
    20:00 -3°C° 0 mm 4 m/s 753 mmHg 79%
    21:00 -2°C° 0 mm 3 m/s 753 mmHg 79%
    22:00 -2°C° 0 mm 3 m/s 753 mmHg 81%
    23:00 -2°C° 0 mm 3 m/s 753 mmHg 83%

    22 Noiembrie, Joi

    Timp Temperatura Precipitaţii Vânt Presiune Umiditate
    00:00 -2°C° 0 mm 3 m/s 753 mmHg 84%
    01:00 -2°C° 0 mm 3 m/s 753 mmHg 85%
    02:00 -2°C° 0 mm 3 m/s 753 mmHg 85%
    03:00 -3°C° 0 mm 4 m/s 753 mmHg 86%
    04:00 -4°C° 0 mm 4 m/s 753 mmHg 85%
    05:00 -4°C° 0 mm 3 m/s 753 mmHg 85%
    06:00 -4°C° 0 mm 3 m/s 753 mmHg 84%
    07:00 -4°C° 0 mm 3 m/s 753 mmHg 83%
    08:00 -4°C° 0 mm 3 m/s 753 mmHg 82%
    09:00 -4°C° 0 mm 3 m/s 753 mmHg 81%
    10:00 -4°C° 0 mm 4 m/s 752 mmHg 77%
    11:00 -4°C° 0 mm 5 m/s 752 mmHg 73%
    12:00 -4°C° 0 mm 5 m/s 752 mmHg 69%
    13:00 -4°C° 0 mm 5 m/s 752 mmHg 70%
    14:00 -4°C° 0 mm 5 m/s 752 mmHg 70%
    15:00 -4°C° 0 mm 5 m/s 752 mmHg 71%
    16:00 -4°C° 0 mm 6 m/s 752 mmHg 74%
    17:00 -4°C° 0 mm 6 m/s 752 mmHg 76%
    18:00 -5°C° 0 mm 6 m/s 752 mmHg 79%
    19:00 -4°C° 0 mm 6 m/s 752 mmHg 79%
    20:00 -4°C° 0 mm 5 m/s 752 mmHg 79%
    21:00 -4°C° 0 mm 5 m/s 752 mmHg 79%
    22:00 -4°C° 0 mm 5 m/s 752 mmHg 80%
    23:00 -4°C° 0 mm 5 m/s 753 mmHg 82%
    Arată mai mult